| time (UTC) | temp F | wind direction | speed MPH | gust MPH | rain 1hr in | rain 24hr in | rain mn in | humidity % | barometer mb |
| 20260505124539 | 63 | 0 | 0.0 | 4.0 | 0.00 | 0.00 | 0.00 | 70 | 1010.7 |
| 20260505123037 | 60 | 236 | 1.0 | 4.0 | 0.00 | 0.00 | 0.00 | 76 | 1010.7 |
| 20260505121537 | 58 | 163 | 1.0 | 4.0 | 0.00 | 0.00 | 0.00 | 78 | 1011.1 |
| 20260505120031 | 57 | 102 | 1.0 | 2.0 | 0.00 | 0.00 | 0.00 | 79 | 1010.7 |
| 20260505114535 | 58 | 0 | 0.0 | 3.0 | 0.00 | 0.00 | 0.00 | 78 | 1010.7 |
| 20260505113030 | 58 | 0 | 0.0 | 3.0 | 0.00 | 0.00 | 0.00 | 81 | 1010.6 |
| 20260505111530 | 53 | 202 | 1.0 | 2.0 | 0.00 | 0.00 | 0.00 | 88 | 1010.7 |
| 20260505101540 | 49 | 0 | 0.0 | 0.0 | 0.00 | 0.00 | 0.00 | 87 | 1010.2 |
| 20260505100035 | 50 | 0 | 0.0 | 0.0 | 0.00 | 0.00 | 0.00 | 87 | 1010.0 |
| 20260505094530 | 50 | 0 | 0.0 | 0.0 | 0.00 | 0.00 | 0.00 | 87 | 1010.0 |
| 20260505093033 | 51 | 0 | 0.0 | 0.0 | 0.00 | 0.00 | 0.00 | 86 | 1009.9 |
| 20260505091536 | 51 | 0 | 0.0 | 0.0 | 0.00 | 0.00 | 0.00 | 86 | 1009.9 |
| 20260505090041 | 50 | 178 | 0.0 | 3.0 | 0.00 | 0.00 | 0.00 | 85 | 1009.9 |
| 20260505084537 | 51 | 0 | 0.0 | 0.0 | 0.00 | 0.00 | 0.00 | 84 | 1010.1 |
| 20260505083034 | 51 | 0 | 0.0 | 0.0 | 0.00 | 0.00 | 0.00 | 84 | 1009.9 |
| 20260505081531 | 52 | 0 | 0.0 | 0.0 | 0.00 | 0.00 | 0.00 | 83 | 1010.1 |
| 20260505080041 | 52 | 0 | 0.0 | 2.0 | 0.00 | 0.00 | 0.00 | 83 | 1010.0 |
| 20260505074533 | 52 | 168 | 0.0 | 2.0 | 0.00 | 0.00 | 0.00 | 82 | 1010.0 |
| 20260505073035 | 53 | 0 | 0.0 | 0.0 | 0.00 | 0.00 | 0.00 | 80 | 1010.1 |
| 20260505071543 | 53 | 0 | 0.0 | 0.0 | 0.00 | 0.00 | 0.00 | 78 | 1010.0 |
| 20260505070030 | 54 | 0 | 0.0 | 0.0 | 0.00 | 0.00 | 0.00 | 76 | 1009.8 |
| 20260505064534 | 54 | 0 | 0.0 | 0.0 | 0.00 | 0.00 | 0.00 | 73 | 1010.0 |
| 20260505063031 | 55 | 0 | 0.0 | 0.0 | 0.00 | 0.00 | 0.00 | 71 | 1010.0 |
| 20260505061536 | 56 | 0 | 0.0 | 0.0 | 0.00 | 0.00 | 0.00 | 70 | 1010.2 |
| 20260505060037 | 56 | 0 | 0.0 | 2.0 | 0.00 | 0.00 | 0.00 | 69 | 1010.1 |
| 20260505054530 | 57 | 174 | 1.0 | 5.0 | 0.00 | 0.00 | 0.00 | 67 | 1010.1 |
| 20260505053034 | 57 | 188 | 1.0 | 6.0 | 0.00 | 0.00 | 0.00 | 66 | 1010.3 |
| 20260505051532 | 57 | 247 | 1.0 | 7.0 | 0.00 | 0.00 | 0.00 | 66 | 1010.4 |
| 20260505041535 | 57 | 207 | 0.0 | 6.0 | 0.00 | 0.00 | 0.00 | 65 | 1010.7 |
| 20260505040031 | 57 | 200 | 2.0 | 7.0 | 0.00 | 0.00 | 0.00 | 64 | 1010.7 |
| 20260505034533 | 57 | 188 | 1.0 | 6.0 | 0.00 | 0.00 | 0.00 | 64 | 1010.7 |
| 20260505033038 | 58 | 186 | 1.0 | 6.0 | 0.00 | 0.00 | 0.00 | 64 | 1010.7 |
| 20260505031543 | 57 | 225 | 1.0 | 4.0 | 0.00 | 0.00 | 0.00 | 66 | 1010.8 |
| 20260505030030 | 57 | 183 | 2.0 | 5.0 | 0.00 | 0.00 | 0.00 | 68 | 1010.7 |
| 20260505024544 | 57 | 139 | 0.0 | 3.0 | 0.00 | 0.00 | 0.00 | 67 | 1010.7 |
| 20260505023040 | 58 | 0 | 0.0 | 2.0 | 0.00 | 0.00 | 0.00 | 65 | 1010.9 |
| 20260505021532 | 59 | 244 | 1.0 | 6.0 | 0.00 | 0.00 | 0.00 | 63 | 1011.0 |
| 20260505020032 | 59 | 208 | 1.0 | 6.0 | 0.00 | 0.00 | 0.00 | 64 | 1010.9 |
| 20260505014537 | 58 | 252 | 1.0 | 4.0 | 0.00 | 0.00 | 0.00 | 66 | 1010.7 |
| 20260505013032 | 58 | 204 | 1.0 | 3.0 | 0.00 | 0.00 | 0.00 | 67 | 1010.7 |
| 20260505011531 | 58 | 168 | 1.0 | 6.0 | 0.00 | 0.00 | 0.00 | 67 | 1010.6 |
| 20260505010035 | 58 | 224 | 2.0 | 4.0 | 0.00 | 0.00 | 0.00 | 67 | 1010.4 |
| 20260505004533 | 58 | 175 | 2.0 | 7.0 | 0.00 | 0.00 | 0.00 | 66 | 1010.1 |
| 20260505003030 | 58 | 204 | 4.0 | 6.0 | 0.00 | 0.00 | 0.00 | 66 | 1010.0 |
| 20260505001541 | 59 | 210 | 2.0 | 8.0 | 0.00 | 0.00 | 0.00 | 65 | 1009.5 |
| 20260505000032 | 59 | 186 | 2.0 | 8.0 | 0.00 | 0.00 | 0.00 | 64 | 1009.5 |
| 20260504234533 | 59 | 173 | 3.0 | 8.0 | 0.00 | 0.00 | 0.00 | 63 | 1009.3 |
| 20260504233034 | 60 | 136 | 5.0 | 12.0 | 0.00 | 0.00 | 0.00 | 61 | 1009.1 |
| 20260504231532 | 61 | 180 | 3.0 | 15.0 | 0.00 | 0.00 | 0.00 | 59 | 1009.1 |
| 20260504230030 | 61 | 159 | 6.0 | 14.0 | 0.00 | 0.00 | 0.00 | 57 | 1008.8 |
| 20260504224537 | 63 | 175 | 3.0 | 12.0 | 0.00 | 0.00 | 0.00 | 54 | 1008.8 |
| 20260504223029 | 63 | 140 | 4.0 | 12.0 | 0.00 | 0.00 | 0.00 | 52 | 1008.8 |
| 20260504221533 | 64 | 275 | 3.0 | 12.0 | 0.00 | 0.00 | 0.00 | 51 | 1008.9 |
| 20260504220032 | 65 | 146 | 6.0 | 16.0 | 0.00 | 0.00 | 0.00 | 50 | 1009.2 |
| 20260504214532 | 66 | 200 | 3.0 | 14.0 | 0.00 | 0.00 | 0.00 | 48 | 1009.0 |
| 20260504213030 | 67 | 101 | 3.0 | 13.0 | 0.00 | 0.00 | 0.00 | 45 | 1009.0 |
| 20260504211541 | 68 | 186 | 3.0 | 17.0 | 0.00 | 0.00 | 0.00 | 45 | 1009.0 |
| 20260504210044 | 68 | 198 | 6.0 | 18.0 | 0.00 | 0.00 | 0.00 | 42 | 1009.1 |
| 20260504204537 | 69 | 43 | 5.0 | 17.0 | 0.00 | 0.00 | 0.00 | 41 | 1009.0 |
| 20260504203035 | 69 | 167 | 6.0 | 15.0 | 0.00 | 0.00 | 0.00 | 39 | 1009.0 |
| 20260504201529 | 72 | 180 | 5.0 | 14.0 | 0.00 | 0.00 | 0.00 | 29 | 1009.0 |
| 20260504200032 | 71 | 197 | 6.0 | 14.0 | 0.00 | 0.00 | 0.00 | 30 | 1009.2 |
| 20260504194534 | 72 | 212 | 4.0 | 14.0 | 0.00 | 0.00 | 0.00 | 31 | 1009.5 |
| 20260504193031 | 71 | 278 | 5.0 | 16.0 | 0.00 | 0.00 | 0.00 | 30 | 1009.4 |
| 20260504191532 | 71 | 229 | 7.0 | 16.0 | 0.00 | 0.00 | 0.00 | 30 | 1009.6 |
| 20260504190031 | 70 | 243 | 7.0 | 15.0 | 0.00 | 0.00 | 0.00 | 31 | 1009.9 |
| 20260504184529 | 70 | 232 | 8.0 | 16.0 | 0.00 | 0.00 | 0.00 | 30 | 1009.8 |
| 20260504183030 | 70 | 259 | 5.0 | 13.0 | 0.00 | 0.00 | 0.00 | 30 | 1009.9 |
| 20260504181533 | 70 | 208 | 6.0 | 16.0 | 0.00 | 0.00 | 0.00 | 30 | 1010.1 |
| 20260504180030 | 70 | 200 | 6.0 | 15.0 | 0.00 | 0.00 | 0.00 | 30 | 1010.2 |
| 20260504174530 | 70 | 306 | 4.0 | 10.0 | 0.00 | 0.00 | 0.00 | 32 | 1010.3 |
| 20260504173034 | 69 | 255 | 5.0 | 15.0 | 0.00 | 0.00 | 0.00 | 31 | 1010.7 |
| 20260504171529 | 69 | 313 | 4.0 | 15.0 | 0.00 | 0.00 | 0.00 | 32 | 1010.9 |